TimeEDT,TemperatureF,Dew PointF,Humidity,Sea Level PressureIn,VisibilityMPH,Wind Direction,Wind SpeedMPH,Gust SpeedMPH,PrecipitationIn,Events,Conditions,WindDirDegrees,DateUTC
12:54 AM,32.0,17.1,54,30.48,10.0,NE,3.5,-,N/A,,Clear,40,2013-04-21 04:54:00
1:54 AM,30.9,18.0,59,30.48,10.0,NE,3.5,-,N/A,,Clear,40,2013-04-21 05:54:00
2:54 AM,28.9,19.9,69,30.49,10.0,NE,4.6,-,N/A,,Clear,50,2013-04-21 06:54:00
3:54 AM,28.0,19.9,72,30.49,10.0,ENE,3.5,-,N/A,,Partly Cloudy,70,2013-04-21 07:54:00
4:54 AM,28.0,19.0,69,30.51,10.0,NE,4.6,-,N/A,,Partly Cloudy,50,2013-04-21 08:54:00
5:54 AM,26.1,19.9,78,30.53,10.0,ENE,3.5,-,N/A,,Partly Cloudy,70,2013-04-21 09:54:00
6:54 AM,27.0,19.0,72,30.56,10.0,ENE,3.5,-,N/A,,Partly Cloudy,70,2013-04-21 10:54:00
7:54 AM,30.0,24.1,79,30.58,10.0,East,5.8,-,N/A,,Mostly Cloudy,80,2013-04-21 11:54:00
8:54 AM,34.0,25.0,70,30.59,10.0,East,6.9,-,N/A,,Mostly Cloudy,100,2013-04-21 12:54:00
9:54 AM,37.9,26.1,62,30.59,10.0,ESE,11.5,-,N/A,,Mostly Cloudy,110,2013-04-21 13:54:00
10:54 AM,41.0,27.0,57,30.60,10.0,ESE,10.4,-,N/A,,Mostly Cloudy,120,2013-04-21 14:54:00
11:54 AM,42.1,27.0,55,30.59,10.0,ESE,11.5,-,N/A,,Mostly Cloudy,110,2013-04-21 15:54:00
12:54 PM,45.0,28.0,52,30.58,10.0,ESE,11.5,-,N/A,,Overcast,110,2013-04-21 16:54:00
1:54 PM,46.0,26.1,46,30.55,10.0,East,11.5,-,N/A,,Overcast,100,2013-04-21 17:54:00
2:54 PM,48.0,27.0,44,30.53,10.0,ESE,10.4,17.3,N/A,,Mostly Cloudy,110,2013-04-21 18:54:00
3:54 PM,48.9,27.0,43,30.50,10.0,East,9.2,-,N/A,,Mostly Cloudy,100,2013-04-21 19:54:00
4:54 PM,50.0,28.9,44,30.47,10.0,East,9.2,-,N/A,,Mostly Cloudy,90,2013-04-21 20:54:00
5:54 PM,50.0,28.9,44,30.46,10.0,East,10.4,-,N/A,,Scattered Clouds,100,2013-04-21 21:54:00
6:54 PM,50.0,30.9,48,30.45,10.0,East,13.8,-,N/A,,Mostly Cloudy,90,2013-04-21 22:54:00
7:54 PM,48.0,30.0,50,30.45,10.0,East,13.8,-,N/A,,Mostly Cloudy,100,2013-04-21 23:54:00
8:54 PM,44.1,30.9,60,30.45,10.0,East,10.4,-,N/A,,Mostly Cloudy,100,2013-04-22 00:54:00
9:54 PM,41.0,32.0,70,30.45,10.0,East,8.1,-,N/A,,Scattered Clouds,90,2013-04-22 01:54:00
10:54 PM,39.9,30.9,70,30.45,10.0,East,11.5,-,N/A,,Scattered Clouds,80,2013-04-22 02:54:00
11:54 PM,39.0,33.1,79,30.44,10.0,East,10.4,-,N/A,,Clear,90,2013-04-22 03:54:00